Location: Camp Roosevelt
(41.7914°N, 81.1673°W)
Time: 07:28:01
(UTC+00:00)

Cosmos 1076 Rocket - Pass Details

Date: 29 October 2020
Orbit: 589 x 613 km, 82.5° (Epoch: 28 November)

Event Time Altitude Azimuth Distance (km) Brightness Sun altitude
Rises 23:18:28 0° 3° (N) 2,832 6.8 -11.0°
Reaches altitude 10° 23:20:58 10° 17° (NNE) 1,927 5.8 -11.5°
Maximum altitude 23:24:34 26° 75° (ENE) 1,170 4.4 -12.2°
Drops below altitude 10° 23:28:10 10° 133° (SE) 1,922 5.7 -12.8°
Sets 23:30:38 0° 145° (SE) 2,822 6.7 -13.3°
